Wind_Speed
22 20 19 18 16 16 17 18 19 20 21 20 18 17 17 18 17 17 17 17 17 16 15 14 13 13 12 12 12 11 11 10 10 9 10 10 11 12 13 13 13 13 14 13 13 12 12 12 12 12 12 11 11 11 12 11 11 11 11 12 12 12 13 14 15 14 13 11 10 10 10 10 10 9 9 9 11 11 10 10 11 11 11 11 12
25 22 20 19 17 16 17 19 19 20 21 20 19 18 18 18 18 18 17 17 17 16 15 14 13 12 12 11 11 10 10 9 9 9 10 10 11 11 13 13 13 13 14 13 13 12 12 12 11 12 11 11 10 10 11 10 10 9 11 12 13 14 14 14 15 14 14 13 11 10 10 9 8 7 8 8 9 9 9 9 10 10 10 10 11
25 23 20 20 18 17 17 19 20 20 21 21 19 18 19 18 18 18 17 16 16 16 15 14 13 12 12 11 10 10 9 9 8 9 9 10 10 11 12 13 13 13 13 13 12 12 12 12 11 11 11 10 9 9 9 8 8 8 10 12 14 15 14 14 13 13 14 14 13 12 10 10 9 7 7 7 8 8 7 8 8 8 9 10 10
22 22 21 21 20 18 18 20 20 21 21 21 20 19 19 19 19 18 17 16 15 15 14 13 13 12 11 11 10 9 9 8 8 8 8 9 10 11 12 13 13 13 12 12 12 12 12 12 11 10 9 7 6 5 5 5 6 7 10 12 13 14 14 13 12 11 11 12 13 13 12 11 9 7 7 7 7 7 6 7 7 7 8 9 9
20 21 21 22 21 19 19 20 21 21 21 21 21 20 19 19 19 17 17 16 15 15 14 13 13 12 11 10 9 8 8 7 7 6 7 7 8 10 11 12 12 12 11 11 11 11 11 10 8 7 6 5 4 3 3 3 5 8 11 12 12 12 13 13 12 9 8 9 10 11 12 11 10 8 7 6 6 6 6 6 6 6 7 8 8
20 21 21 22 22 21 20 21 22 22 21 21 21 21 20 19 18 17 17 16 16 14 14 13 13 12 11 10 9 8 7 6 6 6 6 7 8 9 11 11 11 11 11 10 9 9 9 7 6 5 5 5 5 5 4 5 8 12 14 13 12 12 12 12 11 9 7 6 8 10 11 11 11 9 7 6 6 6 6 6 6 5 6 7 7
19 21 21 22 22 22 22 22 22 22 21 22 22 21 20 19 18 17 17 16 16 15 14 14 13 12 10 9 8 7 7 7 6 6 6 6 7 9 10 10 10 10 10 9 8 8 7 6 6 6 7 8 7 7 7 10 14 17 16 14 13 13 12 11 10 8 6 5 7 10 11 11 12 11 8 6 6 5 5 5 5 5 6 6 6
19 21 22 22 22 22 23 23 23 23 22 22 22 21 20 18 18 17 17 17 16 15 14 13 12 11 10 9 8 7 7 7 7 6 6 6 7 8 9 9 8 8 8 7 6 7 7 7 7 8 9 9 9 9 11 15 17 18 16 14 14 13 12 10 9 6 4 6 7 9 10 11 12 12 9 7 6 5 5 4 4 5 5 6 6
20 21 23 23 22 23 23 24 23 23 23 23 22 21 19 18 17 17 17 17 16 15 14 13 12 10 10 9 8 8 7 7 7 7 7 6 7 8 9 8 7 7 6 6 6 7 7 8 8 9 10 10 10 12 15 17 17 17 15 14 13 12 11 9 6 3 4 6 7 8 9 10 11 12 10 8 6 5 5 5 4 5 5 5 6
20 21 23 24 23 23 24 24 24 24 24 23 22 20 19 18 17 17 17 17 16 15 14 13 12 11 10 10 9 8 7 7 7 7 7 6 7 8 8 8 7 6 5 6 6 7 8 8 9 9 10 10 11 13 16 16 16 16 15 14 13 12 10 7 3 1 5 7 7 8 9 10 11 12 11 9 7 6 6 5 5 5 5 6 6
21 22 23 24 24 24 25 25 25 24 24 24 22 20 18 18 17 17 17 17 16 15 14 13 12 12 11 10 10 9 8 7 7 8 7 7 6 7 8 8 7 6 5 5 7 7 8 8 9 9 10 10 11 13 15 15 16 16 15 14 12 11 9 6 2 1 5 7 7 8 9 10 11 12 11 9 8 7 6 7 7 7 7 7 7
23 23 24 24 24 24 26 25 25 25 25 24 22 20 18 17 17 17 17 16 16 15 14 14 13 12 11 11 10 9 8 7 7 8 8 7 7 7 7 7 7 6 5 5 6 7 7 8 8 9 9 10 10 12 13 14 15 15 14 13 11 10 8 5 3 2 4 5 7 8 9 11 12 12 12 11 9 8 8 9 9 9 9 9 9
25 25 25 24 25 25 26 26 25 26 25 24 22 20 18 18 17 17 17 16 15 15 14 14 13 13 12 11 10 10 9 8 8 8 8 7 7 6 6 6 6 6 5 5 5 6 7 7 8 8 9 9 9 10 11 12 13 13 13 11 11 10 8 5 3 3 4 5 6 7 9 11 13 12 13 12 10 9 9 10 11 11 11 10 10
25 26 26 24 25 26 27 26 26 26 25 23 21 20 18 18 18 17 16 15 15 15 14 14 13 12 12 11 11 10 9 9 8 8 8 7 7 6 6 6 6 6 5 5 5 5 6 6 6 7 8 7 8 8 9 10 11 12 12 10 9 9 7 4 2 4 3 5 6 6 8 11 13 13 13 13 12 11 11 11 12 13 13 12 12
23 26 25 25 26 27 27 26 26 26 25 23 21 19 18 18 17 17 16 15 15 15 14 14 13 12 12 12 11 11 10 9 9 8 8 7 6 5 5 5 5 5 5 5 5 5 4 5 5 5 6 6 6 6 7 8 10 11 9 8 8 8 7 4 3 5 4 5 6 6 7 10 13 14 14 14 13 12 12 12 12 13 14 13 13
23 25 25 26 26 28 28 27 26 25 24 22 21 19 18 17 17 16 15 15 15 14 14 14 13 12 12 11 11 10 10 10 9 9 8 8 7 6 5 4 4 4 4 4 4 4 3 3 3 3 4 4 4 4 5 6 9 10 8 7 6 6 7 5 3 5 6 5 7 7 7 10 14 16 15 15 15 13 13 13 13 13 14 14 14
24 25 25 25 26 28 28 28 27 25 24 22 21 19 18 17 16 16 15 14 14 13 13 13 13 12 12 11 11 10 9 9 8 8 8 8 8 7 5 4 3 3 3 3 2 2 2 2 1 1 1 1 1 1 2 4 6 8 7 5 4 5 6 5 4 6 7 7 7 8 9 10 14 16 17 17 16 15 15 14 14 14 14 14 14
24 24 25 25 26 28 28 29 28 26 25 23 21 19 18 17 16 16 15 14 14 13 13 12 12 11 11 11 10 9 8 8 7 7 7 8 8 7 6 5 4 3 2 1 1 1 0 1 2 2 2 2 2 2 1 1 2 5 5 5 4 5 6 5 5 6 7 8 8 9 9 10 13 16 17 18 18 18 17 16 16 15 15 15 15
22 22 23 24 27 28 29 29 29 27 25 24 22 20 19 17 16 15 14 14 13 12 12 12 11 11 10 10 9 9 8 7 7 6 6 7 7 7 6 5 5 3 2 1 0 1 1 2 2 3 3 3 3 4 4 4 3 4 5 5 4 5 6 6 5 6 7 10 11 11 11 10 12 16 18 20 20 19 18 19 18 17 16 16 16
21 21 22 24 27 28 30 29 29 27 25 24 23 22 19 17 17 15 14 14 13 12 12 12 11 11 10 9 9 8 7 7 7 6 7 7 7 6 5 5 5 4 2 1 0 1 2 3 3 4 4 4 5 5 6 6 7 7 6 6 6 5 5 6 6 7 10 13 14 13 12 11 12 15 18 20 20 20 20 20 19 18 17 17 17
22 22 23 24 27 28 30 29 28 26 25 24 23 23 20 18 17 16 15 14 13 12 12 12 12 11 10 10 9 7 7 7 8 7 7 8 7 7 6 6 5 4 3 1 0 1 3 3 4 4 5 5 6 6 7 7 8 9 9 9 8 6 5 6 8 9 11 14 15 15 15 13 13 15 17 18 20 20 21 21 19 18 18 17 17
26 26 25 26 27 28 30 29 29 27 25 24 23 22 20 19 17 17 16 14 14 13 13 13 13 12 10 10 9 8 7 8 9 9 8 8 7 7 7 7 6 5 4 3 2 1 2 3 4 5 5 5 6 6 6 7 7 8 9 9 8 7 7 8 9 10 11 12 14 15 17 16 14 15 17 19 20 20 21 21 20 19 19 18 18
27 27 27 27 26 28 29 29 29 27 26 24 23 22 20 20 18 17 16 15 14 13 14 14 13 11 9 9 9 9 9 10 10 8 8 7 7 6 6 6 6 5 5 5 4 3 2 3 4 5 6 6 6 6 6 5 6 6 6 6 7 8 9 10 11 12 12 13 14 14 17 18 17 16 18 20 21 21 21 22 22 22 21 20 19
27 26 25 25 25 26 28 28 27 26 25 23 23 22 20 20 19 18 16 15 14 14 15 14 12 10 8 7 7 8 8 10 9 7 7 7 6 5 5 5 5 4 4 4 5 4 4 4 5 7 6 6 6 6 6 6 7 7 7 8 8 9 10 11 11 12 12 13 14 15 16 18 18 18 19 21 21 22 22 23 24 24 23 21 20
25 24 22 23 24 25 25 27 26 25 24 22 22 21 20 20 19 17 16 15 16 16 15 13 11 9 8 6 5 7 7 8 8 7 7 6 5 5 5 5 5 4 4 4 4 4 4 5 7 7 7 6 7 7 9 9 9 9 10 10 11 12 13 14 13 13 13 13 15 17 18 19 20 20 21 22 23 24 24 25 25 25 24 22 21
24 24 24 23 22 22 23 25 25 24 24 22 22 20 20 20 19 18 17 17 16 15 14 12 10 8 7 5 5 7 7 6 6 6 6 5 4 4 5 5 4 4 4 4 5 5 5 6 7 7 7 8 8 9 10 11 11 11 12 13 14 15 16 17 16 15 15 16 17 17 19 20 21 22 22 23 24 26 27 27 26 26 24 23 22
25 25 25 23 20 20 21 22 22 23 23 22 21 20 20 20 19 19 18 17 16 14 13 11 10 7 5 4 5 6 5 4 4 4 4 4 4 4 4 4 4 4 4 5 6 6 6 6 7 8 8 9 9 10 10 11 13 14 15 15 17 18 18 19 18 18 19 19 19 19 19 20 21 23 25 25 26 27 28 28 27 26 25 25 24
25 25 24 21 19 19 18 18 20 21 21 22 21 20 20 20 20 19 18 16 13 12 11 10 9 7 5 4 4 3 3 4 3 2 2 3 3 3 4 4 4 4 5 6 6 7 8 8 9 10 10 10 10 11 12 12 13 14 15 16 16 16 17 18 19 20 20 20 21 21 20 20 21 24 25 25 27 28 28 29 28 27 27 27 26
23 24 21 19 17 17 18 18 18 19 20 22 22 20 20 21 20 18 16 13 10 10 9 8 7 6 4 2 3 5 6 6 4 3 1 1 2 3 4 4 5 5 5 6 7 8 9 9 10 10 10 11 11 12 12 13 13 13 14 14 14 14 14 16 17 18 20 21 21 21 22 21 22 24 23 24 27 27 27 27 27 28 28 28 27
22 21 18 17 16 16 17 18 17 18 20 22 22 20 20 20 19 17 14 12 10 9 8 7 6 4 1 5 8 8 8 7 4 3 1 2 2 3 4 5 5 5 5 6 7 8 9 8 8 9 9 10 10 11 11 12 12 11 12 12 13 13 13 14 15 17 18 20 21 22 22 21 22 25 24 24 27 28 28 28 28 29 29 28 26
24 22 19 16 15 15 16 17 16 17 19 22 22 21 21 20 18 16 14 12 11 10 8 6 5 2 5 8 10 9 7 6 4 2 2 3 3 4 4 5 4 4 5 5 6 7 7 6 6 7 8 9 10 11 11 11 11 11 12 13 14 14 15 16 16 18 19 19 20 21 21 20 21 23 23 26 29 28 28 29 29 29 29 28 24
30 26 22 19 17 16 16 17 17 16 18 21 21 22 22 20 18 16 13 12 12 10 9 7 5 6 8 9 9 8 7 5 3 2 2 3 4 4 4 4 4 4 4 6 6 6 6 7 7 8 9 10 10 11 11 12 12 14 15 15 16 16 16 17 18 19 20 20 20 20 20 21 21 21 22 24 27 28 29 31 31 29 28 27 25
33 26 21 21 20 19 17 17 18 17 18 21 21 22 22 19 16 14 13 12 12 10 9 8 8 9 10 10 8 7 6 5 4 3 3 3 4 3 3 4 4 5 6 7 7 6 7 8 9 10 10 11 11 12 12 12 13 15 15 16 16 16 17 17 18 18 19 19 19 19 20 21 21 21 22 23 25 28 29 30 31 29 27 27 28
31 23 18 22 24 22 19 17 18 19 19 19 19 19 19 17 15 14 14 14 13 12 12 11 11 11 11 9 8 7 6 6 5 4 3 2 2 2 3 4 5 7 8 8 7 7 8 10 11 11 11 12 13 13 13 14 14 15 15 16 16 16 16 16 16 17 17 18 18 17 17 18 20 21 21 22 23 25 26 26 27 26 26 28 29
26 20 18 23 25 22 19 19 20 20 20 19 17 17 17 18 18 16 17 18 17 16 15 13 12 11 10 9 8 7 7 7 5 3 2 1 1 3 3 5 6 7 9 8 8 9 10 11 12 14 14 14 14 13 14 14 15 16 16 15 15 15 15 14 15 15 16 16 15 14 14 14 17 18 19 20 20 21 22 22 23 23 24 26 27
24 19 19 24 24 19 18 21 21 22 22 21 20 20 22 23 23 21 20 20 19 17 16 14 13 11 9 9 8 7 7 6 4 3 4 2 3 4 5 6 7 8 9 9 9 10 11 12 14 15 16 15 13 13 13 14 15 15 14 14 14 14 13 13 13 13 13 14 13 13 13 14 15 17 18 19 19 19 20 20 21 22 23 24 24
25 21 20 24 24 20 22 24 24 24 24 25 25 24 25 26 25 24 23 20 17 16 15 14 12 11 10 9 7 7 6 5 4 5 6 4 4 6 7 8 9 10 11 11 11 11 12 13 13 13 13 13 13 13 13 14 14 13 12 13 12 11 11 11 11 12 13 13 14 14 15 16 17 17 17 17 17 18 18 19 20 21 21 22 22
28 24 22 25 25 23 27 28 28 28 26 27 27 25 25 27 26 25 23 19 16 15 14 14 13 11 10 8 6 6 6 6 6 7 7 5 6 7 9 10 11 11 12 12 12 12 11 11 11 11 11 11 12 12 13 12 12 12 12 11 11 9 8 10 12 13 14 13 13 13 15 16 16 16 15 16 17 18 17 17 18 19 20 21 21
28 26 26 28 27 28 32 32 31 31 29 29 27 24 24 26 26 23 21 18 16 16 15 15 14 11 10 8 7 7 7 7 7 7 6 6 7 9 10 12 12 13 13 12 11 10 9 9 9 9 8 9 10 10 11 11 11 12 11 10 10 8 8 11 13 12 12 12 13 13 13 14 15 15 15 16 17 17 16 16 17 18 19 20 21
30 29 32 31 30 33 36 34 32 32 31 29 26 25 25 25 23 21 19 18 17 17 16 15 13 11 10 9 9 9 9 9 8 7 7 7 8 10 12 13 13 13 12 10 8 7 8 8 8 7 6 6 8 9 11 12 12 10 8 9 11 8 8 13 12 10 12 13 13 15 14 14 14 15 15 16 16 16 16 16 17 18 19 19 19
34 34 34 32 31 35 37 35 33 32 32 30 28 26 26 24 22 20 20 19 18 18 16 15 13 12 11 11 12 12 11 10 9 8 8 8 10 12 12 13 12 11 8 6 6 6 7 7 6 6 5 6 8 10 11 12 13 12 10 10 11 8 8 13 12 10 13 14 14 16 16 16 15 15 15 15 15 15 15 16 16 17 18 17 17
38 38 36 34 34 36 37 36 34 33 32 30 29 27 25 23 21 20 20 19 19 17 17 16 14 14 14 12 12 12 10 9 9 9 9 10 11 11 11 11 9 7 6 5 4 5 5 5 4 4 5 7 9 11 13 13 15 15 15 15 14 12 10 11 14 12 12 14 15 17 17 17 16 15 14 14 15 15 15 14 15 15 16 15 15
39 40 38 37 37 37 36 36 35 33 32 30 29 27 23 21 19 19 19 19 18 17 17 17 16 15 14 12 11 10 9 9 10 10 9 9 9 9 9 8 6 4 4 3 3 3 4 5 5 4 5 7 8 10 13 14 16 15 16 17 17 18 15 15 17 14 13 15 15 17 18 17 16 14 13 14 16 17 16 14 14 14 15 14 13
39 38 38 38 37 37 36 36 35 33 31 30 30 26 23 21 19 19 19 19 19 18 18 18 17 15 14 12 10 8 9 10 11 11 9 8 7 6 6 4 3 2 1 1 2 3 4 5 6 6 6 6 7 10 12 13 15 15 16 16 16 18 17 20 23 17 15 16 15 16 17 16 16 13 13 16 18 20 18 15 14 14 15 14 13
39 38 37 37 36 35 35 35 34 32 31 31 29 26 24 23 21 21 21 20 20 19 19 18 16 14 13 11 9 8 10 11 11 10 8 7 6 4 2 1 0 1 1 2 3 3 5 6 6 6 7 7 8 9 10 11 13 14 15 13 11 13 15 21 23 18 17 17 16 17 16 16 15 14 14 17 18 20 20 19 16 14 14 13 13
40 39 37 35 33 32 32 33 33 32 31 30 27 25 24 24 24 24 24 23 22 21 20 18 15 14 12 9 8 8 10 10 9 8 8 7 4 1 1 1 1 1 1 2 4 4 5 5 5 6 7 8 8 7 9 11 10 11 12 10 7 7 12 18 19 18 19 18 16 17 15 15 14 13 15 18 19 19 20 21 19 17 15 14 13
40 38 36 33 30 29 30 31 32 31 30 28 26 24 23 23 24 24 24 24 24 22 19 16 15 14 11 8 7 7 8 8 8 8 7 5 2 1 1 1 1 1 1 2 4 5 5 5 5 6 7 9 10 9 10 10 9 10 10 8 5 5 8 11 14 17 19 19 18 16 14 15 14 14 16 19 20 19 20 20 20 19 18 16 14
39 37 35 31 28 29 30 31 32 30 28 27 25 24 23 23 24 23 23 23 23 21 19 17 15 12 9 7 7 7 7 8 9 8 5 2 1 2 1 1 1 1 2 3 4 4 4 3 4 6 8 9 11 11 12 10 9 8 8 7 6 5 6 8 10 12 15 19 20 18 14 14 14 14 17 19 19 20 20 20 20 20 18 17 16
38 35 33 30 28 30 30 30 30 29 27 27 25 24 23 23 24 23 23 23 21 20 19 18 15 11 9 8 7 7 7 7 8 6 2 1 1 1 2 1 1 1 3 3 3 3 4 4 4 7 9 10 10 11 11 10 9 7 6 6 6 7 8 9 9 10 13 16 19 21 19 14 14 14 16 19 19 19 20 20 20 19 18 18 17
37 35 32 30 29 29 29 29 28 27 26 26 24 24 23 23 24 23 23 23 22 21 19 16 13 11 10 9 8 7 6 7 6 4 1 2 2 2 2 2 0 1 3 3 3 4 6 6 6 7 9 9 9 10 9 8 8 8 8 7 7 8 9 10 11 12 14 15 15 19 20 18 17 15 16 18 19 18 19 19 20 20 20 19 18
36 35 32 30 29 29 28 28 27 26 26 25 24 24 23 24 24 23 23 23 23 21 19 16 13 11 10 9 7 6 5 5 4 2 2 2 3 3 3 2 1 2 3 2 3 5 5 7 7 7 7 7 7 8 7 7 8 8 8 8 9 9 9 10 11 12 13 13 14 16 18 19 17 13 13 16 17 18 19 19 21 21 21 20 19
Wind_Direction
169 180 182 171 159 153 156 159 160 155 150 150 150 148 141 137 136 135 135 134 134 133 132 130 128 126 122 120 118 116 115 111 106 103 102 104 105 106 110 106 103 101 101 102 101 101 100 99 98 97 96 95 96 95 94 94 93 81 61 57 64 77 85 87 88 84 80 83 86 79 72 73 76 79 79 77 74 77 82 80 78 76 75 75 76
164 174 181 169 158 154 157 159 160 157 152 152 152 147 141 139 138 137 137 136 135 134 133 132 129 127 123 120 118 115 113 109 103 100 98 101 105 109 113 107 102 101 103 104 104 102 100 98 97 97 95 95 97 97 98 97 93 75 61 70 77 83 91 93 90 85 82 84 84 77 73 68 65 67 67 67 65 67 72 74 73 72 75 76 75
165 169 177 168 157 155 158 160 161 159 155 154 152 146 143 142 140 139 138 137 136 135 135 133 130 127 124 120 118 115 111 107 101 99 99 99 105 112 116 112 107 106 107 106 104 102 100 100 98 96 94 94 95 97 99 99 92 74 74 87 86 86 92 93 87 84 83 81 79 73 69 61 56 59 58 58 59 62 68 70 70 70 74 77 75
174 170 173 168 157 156 159 161 162 161 158 155 152 147 146 144 142 140 139 138 137 136 136 134 131 127 124 120 117 113 108 103 98 96 97 98 106 116 121 119 115 114 110 106 105 104 103 102 99 96 94 95 95 97 101 104 96 87 94 100 95 89 90 88 85 84 76 72 73 68 63 55 46 43 42 43 47 54 64 70 69 71 73 71 70
184 175 174 169 158 156 161 163 163 162 160 155 152 150 148 146 143 142 140 139 137 137 138 134 131 127 123 120 117 113 106 99 91 88 91 96 108 121 128 126 122 120 114 110 108 107 107 106 103 99 96 94 93 97 105 112 107 109 114 111 101 91 86 82 83 83 69 65 74 67 57 51 41 31 27 30 37 43 56 70 69 72 75 67 62
190 182 177 172 162 157 162 165 165 163 160 156 153 152 151 148 145 143 141 139 138 139 138 134 129 126 123 121 120 113 105 97 88 86 88 94 108 125 135 134 128 124 120 116 114 113 113 111 107 98 89 83 82 90 102 109 116 123 124 115 103 92 84 78 76 79 73 70 74 64 53 49 41 27 19 25 33 34 43 62 66 66 70 65 55
195 187 180 175 166 158 163 166 165 164 160 157 155 154 152 150 147 144 142 140 139 140 137 132 129 126 124 122 118 111 104 98 94 92 95 99 107 125 140 140 134 129 125 120 116 116 115 112 103 90 81 78 80 87 100 111 122 128 124 112 102 93 85 78 73 73 79 73 59 53 50 47 38 21 10 19 31 29 30 45 53 50 50 51 45
194 190 184 177 169 160 163 166 166 164 160 159 157 155 153 151 148 145 143 140 140 140 135 131 129 126 124 120 114 108 103 100 100 102 106 110 111 123 141 147 140 132 127 121 116 113 110 105 95 86 82 81 83 93 107 117 125 127 121 111 102 94 85 78 73 69 68 58 45 41 38 35 28 15 3 7 22 17 16 25 32 35 31 32 30
190 190 186 179 170 163 164 167 166 164 161 160 158 156 154 153 149 146 144 142 142 139 135 132 128 125 121 117 112 107 103 103 104 108 112 117 117 124 141 150 143 133 129 123 116 111 106 100 93 88 86 87 93 104 115 121 126 128 121 113 105 97 91 82 73 59 54 47 40 38 28 26 20 9 0 358 7 360 355 2 6 14 12 13 15
186 186 184 178 171 165 164 167 167 164 161 160 159 157 155 153 150 147 145 144 144 140 136 132 129 125 121 117 113 109 105 104 104 109 114 117 119 124 139 148 146 141 137 129 118 110 105 99 95 92 91 96 103 112 120 124 127 129 125 117 112 106 101 95 85 19 53 49 43 44 31 24 13 2 357 352 355 352 345 345 345 350 350 351 356
180 181 182 176 170 165 164 167 167 164 162 161 160 158 156 154 151 148 145 145 144 142 138 134 131 127 122 118 114 111 107 104 104 108 112 114 116 122 135 145 146 145 143 130 119 111 106 102 99 95 96 103 111 119 124 128 130 130 127 123 119 116 117 120 164 309 44 47 41 38 24 11 359 355 355 348 342 343 339 335 332 334 336 336 338
176 178 179 175 170 165 165 167 166 164 163 162 160 158 156 154 152 149 147 147 146 143 139 136 134 130 125 121 117 113 109 104 105 111 113 113 113 117 127 139 140 140 138 125 117 113 110 107 103 99 99 105 116 126 130 133 133 131 130 127 124 124 130 146 204 291 16 24 27 22 11 1 351 347 348 343 333 331 332 329 327 326 326 324 325
174 175 176 174 169 165 165 166 166 165 163 162 161 158 156 155 152 150 149 149 148 144 141 139 136 133 129 124 121 116 109 104 106 111 112 111 110 111 115 123 131 135 134 123 119 115 114 110 106 104 101 105 116 129 139 141 138 136 134 132 129 126 130 148 223 289 346 351 9 12 2 353 344 338 338 338 331 324 324 324 321 319 318 317 318
175 172 173 173 168 165 165 166 166 165 164 163 161 159 156 156 154 152 151 150 147 144 142 141 138 136 132 128 124 118 112 107 105 108 109 109 106 104 105 110 119 126 127 122 122 118 117 113 109 109 104 106 114 125 140 149 149 144 142 138 134 130 131 148 253 292 321 334 351 359 351 342 336 333 333 334 330 324 319 319 317 315 313 311 312
181 174 173 172 168 164 165 166 166 165 164 163 161 159 157 157 156 154 152 149 146 144 143 142 141 140 137 132 127 121 117 112 108 107 106 107 106 103 101 103 106 109 116 117 119 117 113 111 108 110 108 108 111 118 133 151 158 157 153 148 146 142 143 163 245 288 310 322 329 336 335 331 328 330 332 332 329 324 319 319 317 314 311 308 308
181 178 174 173 169 165 164 165 167 166 165 164 161 159 158 158 158 156 151 147 145 144 145 144 145 144 142 136 130 126 120 117 113 110 107 106 107 106 102 98 100 98 101 106 112 116 108 104 101 103 106 106 107 113 124 146 162 168 167 159 162 159 158 174 223 277 297 304 310 318 321 320 321 325 329 332 328 323 322 322 322 320 315 311 307
177 178 175 175 172 166 165 165 167 166 165 164 162 160 159 160 159 155 148 146 145 145 147 147 148 146 144 138 132 129 123 119 114 112 109 107 106 105 106 99 97 95 95 102 111 117 112 99 73 66 71 69 86 97 117 140 164 176 182 187 195 187 178 185 219 265 287 291 297 306 313 315 317 321 326 330 328 323 322 322 324 324 322 318 314
175 176 176 177 174 169 167 166 167 167 166 165 163 162 161 162 159 154 148 146 146 146 149 148 148 145 144 140 136 133 127 123 115 112 106 101 100 98 103 105 105 104 101 98 81 72 29 12 6 354 356 348 329 321 302 217 191 195 212 231 228 209 204 214 227 249 278 287 289 296 303 310 312 315 321 326 327 324 322 323 323 324 324 322 319
173 175 176 180 176 171 169 168 169 168 167 165 164 164 164 165 158 153 150 147 147 147 148 146 146 144 143 141 136 134 131 126 117 113 106 99 96 92 96 104 112 110 112 122 74 289 306 310 319 318 318 316 305 302 297 291 274 253 253 253 246 234 231 239 238 244 277 291 291 292 293 302 306 306 312 317 321 322 322 323 321 320 322 321 320
171 177 180 183 179 174 170 169 169 168 168 166 166 166 167 165 156 153 151 149 149 147 146 143 143 142 142 137 129 128 128 122 114 115 113 105 100 96 95 95 102 102 110 140 227 258 270 274 276 285 288 292 292 295 295 293 290 285 279 271 267 260 254 256 259 267 282 290 291 290 289 297 303 302 307 313 316 318 319 321 318 316 317 317 317
174 181 185 186 181 175 171 169 169 168 169 169 169 168 168 165 157 153 151 151 150 146 143 140 140 140 139 131 116 113 121 118 114 118 114 105 98 92 88 80 78 81 83 87 6 281 280 276 277 281 281 285 287 288 288 287 287 285 283 280 273 267 274 280 284 292 296 292 286 284 285 293 301 303 307 309 312 313 315 318 316 313 311 311 312
177 181 186 187 182 176 171 169 169 170 171 171 170 169 169 165 158 155 153 155 151 144 142 138 138 139 136 126 111 109 119 122 119 120 111 100 93 84 78 70 62 60 56 48 39 353 308 299 300 306 307 305 302 297 291 288 287 284 283 280 274 274 289 300 302 305 311 308 295 287 286 288 293 301 306 307 307 308 311 313 313 312 308 306 307
178 179 182 182 182 178 173 171 171 171 172 171 170 171 171 165 159 158 158 158 152 144 141 138 138 139 135 127 118 116 120 126 122 115 105 92 88 80 71 63 55 46 34 27 19 8 346 322 318 322 320 318 322 323 315 308 301 289 279 274 276 284 296 308 312 308 309 313 308 301 295 290 290 296 303 304 304 303 305 306 307 309 307 303 302
175 176 179 178 180 179 175 173 173 173 173 171 172 174 172 165 160 161 161 158 153 148 144 140 142 143 140 136 133 133 131 131 121 110 102 88 80 70 60 51 44 35 21 12 3 357 349 330 323 323 318 314 319 324 320 314 309 299 288 280 285 294 301 306 310 307 305 309 309 305 301 299 297 296 298 299 299 298 300 301 302 305 305 301 298
172 173 177 178 179 181 179 175 175 175 175 174 174 176 171 165 163 162 161 159 156 154 149 147 152 155 152 144 141 139 132 127 115 104 90 77 67 52 49 40 32 30 15 3 358 353 343 329 323 322 321 318 315 311 307 306 307 303 297 292 295 302 304 304 306 306 305 308 307 301 295 297 299 296 294 293 294 294 295 296 298 299 301 299 296
175 176 175 177 178 182 183 179 178 178 178 178 178 177 172 167 165 165 163 163 161 159 156 157 163 164 158 143 131 124 116 109 96 88 73 66 68 52 49 41 32 25 8 353 352 354 350 337 329 328 330 329 323 314 308 309 311 309 308 306 307 305 302 302 302 302 301 302 303 299 290 288 292 294 293 291 291 292 293 294 294 294 296 296 295
175 176 170 171 172 177 184 184 183 182 181 180 181 179 172 169 169 169 169 168 166 166 166 167 171 170 160 145 127 116 110 107 97 85 71 71 69 49 40 34 28 11 359 353 353 355 349 338 333 332 332 330 325 321 318 318 319 317 317 315 311 305 300 298 296 296 295 294 292 291 287 281 283 287 290 291 290 290 291 291 291 290 290 292 293
170 169 162 162 165 173 180 183 186 187 185 183 185 182 174 172 172 172 172 171 170 171 173 173 180 173 151 141 131 135 148 146 138 114 72 57 42 25 18 13 9 357 354 353 350 347 340 335 333 331 330 327 324 322 319 316 316 315 314 312 310 306 303 300 297 297 294 292 287 284 284 279 279 282 284 288 288 287 288 289 289 288 287 289 290
164 164 159 159 163 170 176 181 186 188 188 187 187 183 176 174 173 173 170 169 172 175 176 175 173 151 128 153 186 192 181 171 166 148 89 356 346 352 354 350 351 348 345 345 342 337 331 329 328 325 325 323 320 317 312 310 309 309 309 308 309 309 307 304 303 302 299 301 301 294 288 281 276 278 280 283 283 281 283 285 285 285 285 287 287
163 164 164 163 159 162 170 177 181 185 188 187 187 182 176 174 170 170 166 166 175 179 179 171 147 126 228 228 204 196 179 169 164 155 201 273 308 324 329 331 336 336 335 338 333 324 322 324 323 317 315 311 309 310 309 308 307 307 305 303 305 303 303 303 303 303 301 305 307 304 300 293 283 279 276 276 278 280 281 280 278 280 282 282 283
164 165 169 169 160 157 162 165 171 180 184 184 182 177 173 172 168 166 164 168 180 185 185 174 146 181 242 216 196 192 179 169 159 154 211 260 286 300 307 307 310 317 323 323 317 313 315 318 311 304 303 302 307 312 312 312 310 309 306 303 302 300 300 299 299 299 299 300 300 302 305 304 295 288 280 274 276 280 280 280 279 280 281 280 280
166 167 171 174 171 167 163 160 160 163 171 174 175 175 173 172 169 169 171 178 188 190 188 182 182 212 213 193 187 187 181 178 182 198 230 266 282 286 292 297 311 320 311 312 318 318 313 311 306 302 305 307 311 312 312 313 312 311 309 306 305 304 304 303 303 303 302 302 301 301 302 302 302 301 295 285 284 286 285 284 284 284 281 276 276
168 168 173 180 183 175 166 163 157 153 162 167 170 176 176 173 171 175 183 189 194 195 195 195 202 209 195 182 181 181 181 182 188 230 243 262 274 274 303 320 330 329 314 319 328 323 312 312 311 312 312 311 310 308 309 309 309 309 308 309 311 312 312 311 310 307 304 304 303 302 300 301 302 303 300 295 294 294 293 290 287 287 283 275 275
168 169 177 186 185 171 165 171 165 161 171 173 173 177 179 177 177 183 191 195 201 206 208 206 204 203 189 180 184 184 192 190 184 216 240 254 267 274 320 320 317 316 311 314 319 314 312 314 315 316 316 314 314 313 312 311 310 311 312 315 319 322 322 320 316 311 307 305 303 303 301 300 302 303 301 298 297 297 298 296 292 291 286 279 277
175 175 177 181 177 169 173 180 174 174 182 184 182 184 187 186 186 189 192 198 210 216 218 214 203 197 187 184 191 195 205 205 188 199 233 221 237 264 290 294 298 303 303 307 312 312 313 317 318 318 319 319 317 315 314 314 315 317 321 328 332 332 331 326 319 312 307 305 304 303 301 303 308 309 306 303 301 299 300 300 297 294 289 285 280
183 179 178 180 177 181 190 186 182 184 187 189 189 189 189 190 191 194 197 204 213 216 215 209 198 191 187 189 196 204 211 209 192 207 240 238 240 264 276 282 292 299 303 308 310 311 312 315 317 320 322 323 322 318 316 316 319 324 333 341 342 340 335 327 321 317 314 313 313 309 307 312 315 312 309 307 304 299 298 299 298 295 293 292 289
184 183 186 188 188 197 195 187 186 188 189 193 195 195 193 194 198 201 204 209 211 207 203 196 192 188 188 192 197 209 209 202 203 220 237 245 254 270 278 284 294 300 303 305 307 310 312 313 316 320 322 326 327 321 318 322 327 335 345 349 348 345 339 337 340 338 335 333 328 322 319 318 316 313 310 309 306 302 301 299 299 298 295 294 291
183 188 189 187 193 198 190 186 188 190 194 197 199 201 200 201 204 206 207 208 204 199 195 190 189 188 189 188 187 203 205 204 216 225 240 257 267 273 279 288 297 300 303 307 310 311 310 311 316 321 326 333 334 327 325 330 335 343 351 355 356 356 355 358 356 352 350 348 342 335 328 323 319 317 313 309 308 308 309 307 304 301 297 293 289
183 189 189 187 191 190 186 187 190 193 197 198 201 203 202 202 202 203 202 199 197 194 193 190 186 184 190 189 188 201 204 211 220 226 247 268 275 276 280 290 296 299 306 311 312 311 309 311 316 321 335 348 344 333 329 333 339 346 356 4 6 11 17 11 3 2 6 4 0 354 345 336 328 324 318 313 311 311 314 314 309 304 298 294 290
183 187 188 186 185 185 185 189 191 194 195 196 201 201 196 194 193 192 192 190 190 190 192 191 184 183 190 193 197 205 206 211 219 231 254 270 276 278 282 288 294 301 308 313 314 314 313 318 327 331 344 357 343 330 332 338 339 341 0 14 13 17 22 17 15 16 15 11 8 3 355 348 340 334 329 323 318 312 310 311 312 313 307 300 295
184 185 185 182 182 185 187 189 191 194 195 195 199 196 188 184 182 182 184 185 185 187 189 187 185 188 195 200 202 205 209 214 226 247 267 278 282 283 286 291 296 303 305 304 305 306 312 322 338 344 348 351 343 335 337 340 340 343 358 6 9 16 21 20 20 16 14 12 10 7 2 356 350 345 340 333 327 319 314 314 317 322 322 315 307
182 182 183 181 182 186 188 190 193 196 197 197 197 192 185 180 178 179 181 183 185 185 183 182 189 197 202 205 203 204 210 222 241 263 281 288 288 285 288 291 291 293 286 284 292 296 310 326 343 354 357 356 354 350 345 346 351 355 354 351 355 1 5 15 18 14 11 10 9 9 9 4 359 354 350 344 337 330 324 322 322 326 328 323 316
181 180 182 182 183 186 188 192 195 197 198 197 195 189 185 182 180 181 182 184 183 181 181 185 194 201 204 205 204 207 219 242 260 276 289 293 288 279 280 283 278 274 270 278 299 308 322 337 346 355 357 358 7 7 0 356 358 358 355 354 355 353 351 355 3 7 6 6 6 6 8 8 6 1 357 354 351 347 337 325 322 323 324 321 315
184 182 184 185 184 185 189 193 197 200 198 194 192 188 185 183 184 185 184 185 182 180 184 189 194 200 204 205 211 226 247 266 277 282 285 282 277 266 267 278 269 265 282 330 344 333 338 340 344 350 346 353 16 18 11 4 1 2 2 2 355 353 350 342 344 351 358 2 4 4 8 11 9 4 1 1 1 0 354 339 329 324 323 321 315
187 187 187 186 186 187 191 196 200 200 194 189 188 187 186 184 183 184 183 185 184 184 188 189 191 200 205 208 221 244 259 269 275 275 273 268 264 259 273 313 290 311 29 21 357 341 338 335 339 346 342 353 18 20 14 11 9 9 9 9 2 354 341 330 333 340 347 356 2 4 12 16 12 9 8 5 2 1 1 357 351 341 331 325 319
188 187 187 187 189 192 195 198 198 193 187 186 186 185 186 184 183 183 183 186 187 188 191 192 195 201 205 212 228 246 257 262 262 261 261 259 255 257 355 24 88 62 41 357 341 328 325 333 339 340 340 351 6 14 17 16 10 5 6 12 9 345 326 326 333 336 338 349 358 1 15 24 18 16 16 7 360 359 360 0 2 358 349 338 328
187 187 187 188 192 194 194 193 189 186 184 185 186 186 187 185 185 186 187 190 191 190 190 194 201 205 208 216 231 247 253 252 254 256 252 247 234 110 76 74 96 42 344 323 321 316 322 339 338 331 339 351 358 3 10 10 0 359 4 4 356 333 326 337 346 343 339 343 348 354 17 32 25 23 23 10 359 360 1 1 2 2 2 355 342
186 186 187 189 190 189 187 185 184 184 184 185 186 187 187 186 187 190 192 195 197 194 191 194 201 204 210 219 237 250 248 248 252 250 237 210 122 108 113 81 49 327 302 303 307 306 307 319 327 332 345 354 356 357 359 359 359 6 10 6 4 360 354 0 4 359 350 345 344 347 8 35 36 31 27 14 2 0 1 1 1 360 1 2 357
187 187 187 187 187 186 185 184 184 184 184 185 187 186 186 189 190 192 194 194 196 198 196 196 197 199 211 226 243 253 251 253 249 236 202 104 91 113 91 69 46 309 298 297 295 284 284 301 332 345 347 349 354 359 359 1 6 12 10 6 10 7 358 358 7 14 9 359 350 347 353 13 29 32 28 15 4 0 359 360 359 359 358 359 2
188 188 187 186 186 188 188 187 186 185 184 186 187 184 185 190 192 193 194 192 195 199 196 193 192 197 215 232 247 257 258 253 238 216 150 81 91 99 90 91 80 300 286 275 274 282 304 335 355 353 349 351 360 7 8 7 7 7 6 3 1 1 357 357 8 18 17 8 356 351 354 359 7 21 23 12 5 360 358 359 357 357 358 356 359
188 188 188 188 188 190 191 192 189 185 186 187 187 185 186 191 192 193 195 197 200 199 193 191 194 201 218 232 246 255 251 237 213 175 124 93 88 96 108 130 214 266 256 263 294 306 335 2 4 358 1 7 11 12 9 8 4 2 4 4 6 14 21 21 22 25 22 12 360 357 360 358 0 15 15 5 5 0 357 0 1 359 358 356 357
Height
1525 1529 1531 1532 1534 1534 1536 1537 1538 1539 1539 1540 1541 1541 1541 1541 1542 1542 1542 1542 1542 1543 1543 1543 1544 1544 1545 1545 1546 1546 1546 1546 1546 1545 1545 1545 1544 1544 1544 1544 1544 1544 1544 1543 1544 1543 1543 1544 1544 1544 1544 1544 1544 1544 1545 1545 1545 1545 1544 1544 1543 1543 1543 1542 1542 1542 1542 1542 1542 1542 1542 1542 1541 1541 1541 1540 1540 1540 1539 1539 1539 1539 1538 1538 1537
1523 1527 1530 1532 1533 1534 1535 1536 1537 1538 1539 1540 1540 1541 1541 1542 1542 1542 1543 1543 1543 1543 1544 1544 1544 1544 1545 1546 1546 1546 1546 1546 1546 1546 1546 1545 1545 1545 1545 1545 1545 1545 1545 1545 1545 1544 1545 1545 1545 1545 1545 1545 1545 1545 1545 1546 1546 1546 1545 1545 1544 1543 1543 1543 1543 1543 1543 1543 1543 1542 1542 1542 1542 1542 1542 1541 1541 1541 1540 1540 1540 1539 1539 1539 1538
1523 1526 1529 1531 1532 1533 1535 1536 1537 1538 1538 1539 1540 1541 1541 1542 1542 1543 1543 1543 1543 1544 1544 1544 1544 1545 1545 1546 1547 1547 1547 1547 1547 1547 1546 1546 1546 1546 1546 1546 1546 1546 1546 1546 1545 1545 1546 1545 1546 1546 1546 1546 1546 1546 1546 1546 1546 1546 1546 1545 1545 1544 1544 1544 1544 1544 1543 1543 1543 1543 1543 1543 1542 1542 1542 1542 1542 1541 1541 1541 1540 1540 1540 1539 1539
1524 1526 1528 1530 1531 1533 1534 1536 1537 1537 1538 1539 1540 1541 1541 1542 1542 1543 1543 1544 1544 1545 1545 1545 1545 1545 1546 1547 1547 1548 1548 1548 1547 1547 1547 1547 1547 1547 1547 1547 1547 1547 1547 1546 1546 1546 1546 1546 1547 1546 1547 1547 1547 1547 1547 1547 1547 1547 1546 1546 1546 1545 1545 1545 1545 1544 1544 1544 1543 1543 1543 1543 1543 1543 1543 1542 1542 1542 1542 1541 1541 1541 1540 1540 1539
1525 1526 1528 1529 1530 1532 1534 1535 1536 1537 1538 1539 1540 1541 1542 1542 1542 1543 1543 1544 1544 1545 1545 1545 1545 1546 1547 1547 1548 1548 1548 1548 1548 1548 1547 1547 1547 1547 1547 1547 1547 1547 1547 1547 1547 1547 1547 1547 1547 1547 1547 1547 1547 1547 1547 1547 1547 1547 1547 1547 1546 1546 1546 1545 1545 1545 1545 1544 1544 1544 1543 1543 1543 1543 1543 1543 1543 1542 1542 1542 1541 1541 1541 1540 1540
1524 1526 1527 1529 1530 1531 1533 1535 1536 1537 1538 1539 1540 1541 1541 1542 1543 1543 1543 1544 1545 1546 1546 1546 1546 1546 1547 1548 1548 1548 1549 1548 1548 1548 1548 1548 1548 1548 1548 1548 1548 1548 1548 1548 1548 1548 1548 1548 1548 1548 1548 1547 1547 1547 1547 1547 1547 1547 1547 1547 1547 1547 1546 1546 1546 1545 1545 1545 1544 1544 1544 1544 1544 1544 1544 1544 1543 1543 1542 1542 1542 1541 1541 1540 1540
1524 1526 1527 1529 1529 1530 1532 1534 1535 1536 1538 1539 1540 1541 1541 1542 1543 1543 1544 1544 1545 1546 1546 1546 1546 1547 1547 1548 1548 1549 1549 1549 1549 1549 1549 1548 1548 1548 1548 1548 1548 1549 1549 1549 1549 1549 1549 1548 1548 1548 1548 1548 1548 1547 1547 1547 1548 1548 1548 1548 1548 1548 1547 1547 1546 1546 1545 1545 1545 1544 1544 1544 1544 1544 1544 1544 1544 1543 1543 1543 1542 1542 1541 1541 1540
1523 1526 1527 1529 1529 1530 1532 1534 1535 1536 1537 1539 1540 1540 1541 1542 1543 1543 1544 1544 1545 1546 1546 1547 1547 1547 1548 1548 1549 1549 1549 1549 1549 1549 1549 1549 1549 1549 1549 1549 1549 1549 1549 1549 1549 1549 1549 1549 1549 1549 1549 1549 1548 1548 1548 1548 1548 1549 1549 1549 1549 1548 1548 1547 1547 1546 1546 1546 1545 1545 1545 1545 1545 1545 1545 1544 1544 1544 1543 1543 1543 1542 1542 1541 1541
1523 1525 1527 1528 1529 1531 1532 1533 1535 1536 1537 1539 1540 1540 1541 1542 1543 1543 1544 1545 1546 1546 1547 1547 1547 1548 1548 1549 1549 1549 1549 1550 1550 1550 1550 1550 1550 1549 1549 1550 1550 1550 1550 1550 1550 1550 1550 1550 1550 1550 1550 1549 1549 1549 1549 1549 1549 1549 1550 1550 1549 1549 1549 1548 1548 1547 1546 1546 1546 1546 1546 1545 1545 1545 1545 1545 1544 1544 1544 1543 1543 1542 1542 1541 1541
1522 1524 1527 1528 1530 1531 1532 1533 1535 1536 1537 1539 1540 1541 1542 1542 1543 1543 1544 1545 1546 1547 1547 1547 1548 1548 1549 1549 1549 1550 1550 1550 1550 1550 1550 1550 1550 1550 1550 1550 1551 1551 1551 1551 1551 1551 1551 1551 1551 1551 1551 1550 1550 1550 1550 1550 1550 1550 1550 1550 1550 1550 1550 1549 1548 1547 1547 1547 1547 1547 1546 1546 1546 1546 1545 1545 1545 1545 1544 1544 1543 1542 1542 1541 1541
1521 1524 1527 1528 1530 1531 1532 1534 1535 1536 1537 1539 1540 1541 1542 1543 1543 1544 1544 1545 1546 1547 1547 1548 1548 1549 1550 1550 1550 1550 1551 1551 1551 1551 1551 1551 1551 1551 1551 1551 1551 1551 1552 1552 1551 1552 1551 1552 1552 1552 1552 1551 1551 1551 1551 1551 1551 1551 1551 1551 1551 1551 1551 1550 1549 1548 1548 1548 1547 1547 1547 1546 1546 1546 1546 1545 1545 1545 1544 1544 1543 1543 1542 1541 1541
1521 1524 1526 1529 1530 1531 1532 1534 1535 1537 1538 1539 1540 1541 1542 1543 1543 1544 1545 1545 1546 1547 1548 1548 1549 1550 1550 1551 1551 1551 1551 1551 1551 1551 1551 1552 1552 1552 1552 1552 1552 1552 1552 1553 1553 1553 1552 1553 1553 1553 1553 1553 1553 1552 1553 1552 1552 1552 1552 1552 1552 1552 1551 1551 1549 1549 1548 1548 1548 1547 1547 1547 1547 1547 1546 1546 1545 1545 1544 1544 1543 1543 1542 1541 1541
1521 1524 1526 1528 1530 1531 1533 1534 1535 1537 1538 1539 1540 1541 1542 1543 1544 1544 1545 1546 1547 1547 1548 1549 1549 1550 1551 1551 1552 1552 1552 1552 1552 1552 1552 1552 1553 1553 1553 1553 1553 1553 1553 1553 1554 1554 1553 1554 1554 1554 1554 1554 1554 1554 1554 1553 1554 1553 1553 1553 1553 1553 1552 1551 1550 1549 1549 1548 1548 1547 1547 1547 1547 1547 1547 1546 1546 1545 1544 1544 1543 1543 1542 1542 1541
1521 1524 1526 1528 1530 1532 1533 1535 1536 1537 1539 1540 1541 1542 1542 1543 1544 1545 1546 1546 1547 1548 1548 1549 1550 1551 1551 1552 1552 1553 1553 1553 1553 1553 1553 1553 1554 1554 1554 1554 1554 1554 1554 1554 1554 1554 1554 1554 1554 1554 1554 1555 1555 1554 1554 1554 1554 1554 1554 1554 1554 1553 1553 1552 1550 1550 1549 1549 1548 1548 1547 1548 1548 1548 1547 1546 1546 1545 1544 1544 1543 1543 1542 1541 1541
1521 1524 1527 1528 1530 1531 1533 1535 1536 1538 1539 1540 1541 1542 1543 1544 1545 1545 1546 1547 1548 1548 1549 1550 1550 1551 1552 1552 1553 1553 1553 1553 1554 1554 1554 1554 1554 1555 1555 1555 1555 1555 1555 1555 1555 1555 1555 1555 1555 1555 1555 1555 1555 1555 1555 1555 1555 1555 1555 1555 1554 1554 1553 1552 1551 1550 1550 1549 1549 1548 1548 1548 1548 1548 1547 1547 1546 1545 1544 1544 1543 1542 1542 1541 1541
1522 1524 1526 1528 1530 1531 1533 1535 1536 1538 1539 1541 1542 1543 1543 1544 1545 1546 1547 1548 1548 1549 1550 1550 1551 1552 1552 1553 1553 1554 1554 1554 1554 1554 1554 1554 1555 1555 1555 1556 1556 1556 1556 1556 1556 1556 1556 1556 1556 1556 1556 1556 1556 1556 1556 1556 1556 1556 1555 1555 1555 1554 1554 1553 1552 1551 1551 1550 1549 1549 1548 1548 1548 1548 1547 1547 1546 1545 1544 1544 1543 1542 1541 1541 1540
1522 1524 1526 1528 1530 1531 1532 1534 1536 1538 1539 1541 1542 1543 1544 1545 1546 1547 1548 1548 1549 1550 1550 1551 1551 1552 1553 1553 1554 1554 1554 1554 1555 1555 1555 1555 1555 1555 1556 1556 1556 1556 1557 1557 1557 1557 1557 1557 1557 1557 1556 1556 1557 1557 1556 1556 1556 1556 1556 1556 1555 1555 1554 1554 1553 1552 1551 1551 1550 1550 1549 1548 1548 1548 1548 1547 1546 1545 1544 1543 1542 1542 1541 1540 1540
1522 1524 1526 1528 1529 1531 1532 1534 1535 1537 1539 1540 1542 1543 1544 1546 1547 1548 1548 1549 1550 1550 1551 1551 1552 1553 1553 1554 1554 1554 1554 1555 1555 1555 1556 1555 1556 1556 1556 1556 1556 1557 1557 1557 1557 1557 1557 1557 1557 1557 1557 1557 1557 1557 1557 1557 1557 1556 1556 1556 1555 1555 1555 1554 1553 1552 1551 1551 1550 1550 1549 1549 1548 1548 1548 1547 1546 1545 1544 1543 1542 1541 1541 1540 1539
1522 1524 1526 1528 1529 1530 1531 1533 1535 1536 1538 1540 1542 1543 1545 1546 1547 1548 1549 1550 1550 1551 1551 1552 1553 1553 1553 1554 1554 1554 1555 1555 1555 1556 1556 1556 1556 1556 1556 1557 1557 1557 1557 1557 1557 1557 1557 1557 1557 1557 1556 1556 1556 1556 1556 1556 1556 1556 1556 1555 1555 1555 1554 1554 1553 1553 1552 1551 1550 1550 1549 1549 1548 1548 1548 1547 1546 1545 1544 1543 1542 1541 1540 1540 1539
1522 1524 1526 1527 1528 1530 1531 1533 1535 1537 1539 1540 1541 1543 1544 1546 1548 1549 1550 1550 1551 1551 1552 1552 1553 1553 1554 1554 1554 1554 1555 1555 1555 1556 1556 1556 1556 1556 1556 1557 1557 1557 1557 1557 1557 1557 1557 1557 1557 1557 1556 1556 1556 1556 1556 1556 1555 1555 1555 1555 1555 1554 1554 1554 1553 1553 1552 1551 1550 1550 1549 1548 1548 1548 1547 1547 1546 1545 1544 1543 1542 1541 1540 1540 1539
1520 1522 1525 1527 1528 1530 1531 1533 1535 1537 1539 1540 1542 1543 1544 1546 1548 1549 1550 1550 1551 1551 1552 1553 1553 1553 1554 1554 1554 1555 1555 1555 1555 1555 1556 1556 1556 1556 1556 1557 1557 1557 1557 1557 1557 1557 1557 1557 1557 1557 1556 1556 1556 1556 1555 1555 1555 1554 1554 1554 1554 1554 1553 1553 1553 1552 1551 1551 1550 1549 1549 1548 1547 1547 1547 1546 1546 1545 1544 1543 1542 1541 1540 1539 1538
1517 1520 1523 1526 1528 1530 1531 1533 1535 1537 1539 1540 1542 1543 1545 1546 1548 1549 1550 1550 1551 1551 1552 1553 1553 1553 1554 1554 1555 1555 1555 1555 1555 1555 1555 1556 1556 1556 1556 1557 1557 1557 1557 1557 1557 1557 1557 1557 1557 1557 1556 1556 1555 1555 1555 1554 1554 1554 1553 1553 1553 1553 1553 1552 1552 1551 1550 1550 1549 1549 1548 1547 1547 1546 1546 1545 1545 1544 1543 1542 1541 1541 1539 1538 1538
1516 1519 1523 1526 1529 1530 1532 1533 1535 1537 1539 1540 1542 1543 1545 1546 1548 1549 1549 1550 1551 1551 1552 1553 1553 1553 1554 1554 1554 1554 1555 1555 1555 1555 1555 1556 1556 1556 1556 1556 1556 1557 1557 1557 1557 1557 1557 1557 1557 1556 1556 1555 1555 1555 1554 1554 1553 1553 1552 1552 1552 1552 1551 1551 1551 1550 1549 1549 1548 1548 1547 1547 1546 1545 1545 1544 1544 1543 1542 1541 1540 1539 1539 1538 1537
1519 1522 1525 1528 1531 1532 1533 1535 1536 1537 1539 1541 1543 1544 1545 1547 1548 1549 1549 1550 1551 1551 1552 1553 1553 1553 1553 1554 1554 1554 1555 1555 1555 1555 1555 1555 1556 1556 1556 1556 1556 1556 1556 1556 1556 1556 1556 1556 1556 1556 1555 1555 1554 1554 1554 1553 1553 1552 1552 1551 1551 1550 1550 1549 1549 1548 1548 1548 1547 1547 1546 1546 1545 1544 1544 1543 1542 1541 1541 1540 1539 1538 1537 1536 1536
1521 1525 1528 1531 1533 1534 1535 1536 1537 1538 1540 1542 1543 1545 1546 1547 1548 1549 1550 1550 1551 1551 1552 1552 1553 1553 1553 1553 1554 1554 1554 1554 1554 1554 1555 1555 1555 1556 1556 1556 1556 1556 1556 1556 1556 1556 1556 1555 1555 1555 1554 1554 1553 1553 1552 1552 1551 1551 1550 1550 1549 1549 1548 1548 1547 1547 1547 1546 1546 1545 1545 1544 1544 1543 1542 1542 1541 1540 1539 1538 1537 1536 1535 1535 1534
1522 1524 1527 1530 1532 1535 1537 1538 1539 1540 1541 1542 1544 1545 1547 1548 1549 1549 1550 1550 1551 1551 1552 1552 1553 1553 1553 1553 1553 1554 1554 1554 1554 1553 1554 1555 1555 1555 1555 1555 1555 1555 1556 1555 1555 1555 1555 1554 1554 1554 1553 1553 1552 1552 1551 1550 1550 1549 1549 1548 1548 1547 1547 1546 1546 1545 1545 1545 1544 1544 1543 1543 1542 1541 1541 1540 1539 1538 1537 1536 1535 1534 1534 1533 1533
1522 1524 1526 1529 1531 1534 1537 1539 1540 1541 1542 1543 1544 1545 1547 1548 1549 1550 1550 1551 1551 1552 1552 1553 1553 1553 1553 1553 1553 1553 1553 1553 1553 1553 1554 1554 1554 1554 1555 1555 1555 1555 1555 1555 1555 1554 1554 1554 1553 1553 1552 1552 1551 1551 1550 1549 1548 1548 1547 1547 1546 1546 1545 1545 1544 1544 1543 1543 1542 1542 1541 1541 1540 1540 1539 1538 1537 1536 1534 1533 1533 1532 1532 1531 1531
1524 1526 1528 1530 1532 1534 1536 1538 1540 1541 1543 1543 1544 1545 1547 1548 1549 1549 1550 1551 1552 1553 1553 1554 1554 1554 1554 1553 1553 1553 1553 1553 1553 1553 1553 1553 1554 1554 1554 1554 1554 1554 1554 1554 1554 1553 1553 1553 1552 1552 1551 1550 1550 1549 1549 1548 1548 1547 1546 1546 1546 1545 1544 1544 1543 1543 1542 1541 1540 1540 1539 1538 1538 1538 1537 1536 1535 1533 1532 1531 1530 1530 1530 1529 1529
1525 1528 1530 1531 1532 1533 1535 1537 1539 1541 1542 1543 1544 1545 1546 1547 1549 1550 1551 1552 1553 1554 1554 1554 1554 1553 1553 1553 1554 1554 1554 1554 1554 1553 1553 1553 1553 1553 1553 1553 1553 1553 1553 1553 1553 1553 1552 1552 1551 1551 1550 1549 1549 1548 1547 1547 1547 1546 1546 1545 1544 1544 1543 1543 1542 1541 1540 1539 1538 1538 1537 1536 1535 1534 1534 1533 1532 1530 1530 1529 1528 1527 1527 1527 1527
1526 1529 1532 1533 1532 1533 1535 1536 1538 1540 1542 1543 1544 1546 1547 1548 1549 1550 1552 1553 1553 1554 1554 1554 1553 1553 1553 1554 1554 1554 1554 1554 1553 1553 1554 1554 1553 1553 1552 1552 1552 1552 1552 1552 1552 1552 1551 1551 1550 1550 1549 1548 1548 1547 1546 1546 1545 1545 1544 1544 1543 1542 1542 1541 1540 1540 1539 1538 1536 1535 1535 1534 1533 1532 1531 1530 1528 1528 1527 1526 1525 1524 1524 1524 1524
1527 1530 1533 1534 1533 1533 1534 1536 1538 1540 1541 1543 1544 1546 1547 1548 1549 1550 1551 1552 1553 1553 1554 1553 1553 1553 1554 1554 1554 1554 1554 1553 1553 1553 1553 1553 1553 1553 1552 1552 1552 1552 1552 1551 1551 1551 1550 1550 1549 1549 1548 1547 1547 1546 1545 1545 1544 1544 1543 1543 1542 1541 1540 1539 1539 1538 1537 1536 1535 1534 1533 1532 1530 1529 1529 1528 1526 1526 1525 1524 1522 1521 1521 1521 1522
1524 1528 1533 1535 1533 1532 1533 1535 1538 1540 1542 1543 1544 1546 1547 1548 1548 1549 1550 1551 1552 1553 1553 1553 1553 1554 1554 1554 1554 1554 1553 1553 1553 1552 1552 1552 1552 1552 1552 1551 1551 1551 1551 1551 1550 1550 1549 1549 1548 1548 1547 1547 1546 1545 1544 1544 1543 1543 1542 1541 1541 1540 1539 1538 1537 1536 1535 1534 1533 1532 1531 1529 1528 1527 1527 1526 1524 1523 1522 1521 1520 1519 1520 1519 1519
1521 1524 1531 1533 1532 1531 1531 1534 1537 1540 1542 1543 1544 1545 1545 1546 1547 1548 1549 1550 1552 1552 1553 1553 1554 1554 1554 1554 1554 1553 1553 1552 1552 1552 1551 1550 1551 1551 1551 1550 1550 1550 1550 1550 1549 1549 1548 1547 1547 1547 1546 1545 1545 1544 1543 1542 1542 1541 1540 1540 1539 1539 1538 1537 1536 1534 1533 1532 1531 1530 1529 1528 1526 1526 1525 1523 1522 1520 1519 1518 1517 1517 1517 1517 1516
1523 1523 1526 1529 1531 1533 1532 1534 1537 1539 1541 1543 1544 1544 1545 1546 1547 1548 1549 1550 1551 1552 1553 1554 1554 1555 1554 1554 1553 1552 1552 1552 1551 1551 1551 1550 1550 1550 1550 1549 1549 1549 1549 1548 1548 1547 1547 1546 1546 1545 1545 1544 1543 1543 1542 1541 1540 1539 1539 1538 1538 1537 1536 1535 1534 1532 1531 1530 1529 1528 1527 1526 1524 1524 1523 1521 1520 1518 1516 1515 1514 1513 1513 1513 1513
1524 1523 1525 1527 1531 1533 1533 1534 1536 1538 1541 1543 1545 1546 1546 1547 1547 1548 1549 1550 1551 1552 1553 1554 1555 1554 1554 1553 1552 1552 1552 1551 1551 1550 1550 1549 1549 1549 1549 1549 1548 1548 1548 1548 1547 1547 1546 1545 1544 1544 1543 1543 1542 1542 1541 1539 1538 1538 1537 1537 1536 1536 1535 1534 1532 1531 1529 1528 1527 1526 1525 1524 1523 1522 1520 1519 1518 1516 1514 1512 1511 1510 1509 1509 1508
1523 1524 1525 1527 1530 1532 1533 1534 1535 1538 1541 1544 1546 1546 1546 1547 1548 1549 1550 1550 1552 1553 1553 1554 1554 1554 1553 1552 1552 1552 1551 1551 1551 1550 1549 1548 1548 1548 1548 1548 1547 1547 1547 1547 1547 1546 1545 1544 1543 1543 1542 1542 1541 1540 1539 1538 1537 1537 1536 1536 1535 1535 1534 1532 1531 1529 1528 1527 1526 1525 1523 1522 1521 1520 1518 1517 1515 1514 1512 1510 1509 1507 1506 1505 1505
1522 1522 1523 1525 1528 1529 1531 1533 1535 1538 1541 1544 1545 1546 1546 1546 1547 1548 1550 1551 1552 1552 1553 1554 1554 1553 1553 1552 1552 1552 1552 1551 1550 1549 1548 1547 1547 1548 1547 1547 1546 1546 1546 1546 1546 1545 1544 1543 1543 1542 1541 1541 1540 1539 1538 1537 1536 1536 1535 1535 1534 1534 1533 1531 1530 1529 1528 1527 1525 1524 1522 1521 1520 1518 1516 1515 1513 1512 1510 1508 1507 1505 1503 1503 1502
1520 1521 1521 1523 1526 1528 1530 1532 1534 1538 1541 1544 1545 1545 1545 1545 1546 1547 1549 1550 1552 1552 1553 1553 1553 1553 1552 1552 1552 1552 1551 1550 1549 1549 1547 1547 1547 1547 1547 1547 1546 1546 1546 1545 1545 1544 1544 1542 1542 1541 1541 1540 1539 1538 1537 1536 1535 1535 1534 1534 1534 1533 1532 1531 1530 1528 1527 1526 1524 1523 1521 1519 1518 1516 1514 1513 1511 1510 1508 1507 1505 1503 1501 1500 1499
1519 1520 1520 1522 1525 1527 1530 1532 1534 1537 1540 1542 1544 1545 1545 1545 1545 1546 1548 1550 1551 1552 1552 1552 1553 1552 1552 1552 1551 1551 1550 1549 1549 1548 1547 1547 1547 1547 1547 1546 1546 1545 1545 1545 1544 1543 1543 1542 1541 1541 1540 1540 1539 1537 1536 1536 1535 1534 1534 1533 1533 1532 1532 1531 1529 1528 1526 1525 1523 1522 1520 1518 1516 1515 1513 1511 1509 1508 1506 1505 1503 1501 1499 1498 1497
1517 1518 1520 1522 1524 1526 1529 1531 1533 1535 1538 1540 1542 1543 1544 1544 1544 1545 1547 1549 1550 1551 1551 1552 1552 1552 1551 1551 1550 1549 1549 1548 1548 1547 1547 1546 1546 1546 1546 1546 1545 1545 1544 1544 1543 1542 1541 1541 1540 1540 1540 1540 1539 1537 1536 1535 1534 1533 1533 1533 1532 1532 1531 1530 1529 1527 1526 1524 1523 1521 1519 1518 1515 1514 1512 1510 1508 1506 1505 1503 1501 1499 1497 1496 1494
1515 1516 1518 1520 1522 1524 1527 1529 1532 1534 1536 1538 1540 1541 1542 1542 1543 1544 1546 1548 1549 1550 1551 1552 1552 1551 1550 1549 1549 1548 1547 1547 1547 1547 1546 1546 1545 1545 1545 1545 1544 1544 1543 1543 1542 1541 1540 1540 1540 1540 1539 1539 1538 1537 1535 1534 1532 1531 1531 1531 1531 1531 1531 1530 1529 1527 1526 1524 1522 1521 1519 1517 1515 1513 1511 1509 1507 1505 1503 1501 1499 1498 1496 1494 1493
1514 1516 1518 1518 1519 1522 1525 1528 1531 1533 1535 1537 1539 1540 1541 1541 1542 1543 1545 1547 1549 1550 1551 1551 1550 1550 1549 1548 1548 1547 1547 1547 1546 1546 1546 1545 1545 1544 1544 1544 1544 1543 1543 1542 1541 1541 1540 1540 1540 1539 1539 1539 1538 1537 1535 1533 1531 1530 1529 1529 1529 1529 1529 1529 1528 1527 1525 1524 1522 1520 1519 1516 1514 1513 1510 1508 1506 1504 1502 1499 1498 1496 1494 1492 1491
1515 1517 1519 1520 1519 1521 1524 1527 1530 1533 1535 1537 1538 1539 1540 1541 1542 1544 1545 1547 1549 1550 1551 1550 1549 1549 1548 1548 1548 1547 1547 1547 1546 1546 1545 1544 1544 1544 1543 1543 1543 1543 1542 1542 1541 1541 1540 1540 1539 1539 1539 1539 1539 1537 1535 1533 1531 1530 1529 1528 1527 1527 1527 1526 1527 1527 1525 1524 1522 1520 1518 1516 1514 1512 1510 1508 1505 1503 1501 1498 1496 1494 1493 1491 1489
1516 1518 1519 1521 1521 1521 1524 1526 1529 1532 1534 1536 1537 1539 1540 1541 1542 1544 1546 1548 1549 1550 1550 1550 1549 1549 1549 1548 1548 1547 1547 1546 1545 1544 1544 1543 1543 1543 1543 1543 1543 1543 1543 1542 1541 1541 1540 1539 1539 1539 1539 1539 1539 1537 1535 1534 1532 1530 1529 1528 1527 1526 1525 1524 1525 1525 1525 1523 1522 1520 1518 1516 1514 1512 1510 1507 1505 1502 1500 1498 1496 1494 1492 1490 1488
1514 1516 1518 1520 1521 1522 1524 1526 1529 1531 1534 1535 1536 1537 1538 1539 1541 1543 1545 1547 1548 1548 1548 1548 1549 1549 1549 1548 1548 1547 1546 1545 1544 1543 1543 1543 1543 1543 1543 1543 1543 1543 1542 1542 1541 1540 1540 1539 1539 1539 1539 1539 1538 1537 1536 1534 1532 1531 1530 1529 1528 1528 1527 1525 1524 1524 1524 1523 1521 1520 1518 1516 1514 1512 1510 1507 1505 1502 1500 1498 1496 1494 1492 1489 1487
1511 1514 1516 1518 1521 1522 1524 1526 1528 1530 1533 1535 1536 1536 1537 1538 1539 1541 1543 1545 1546 1547 1547 1548 1549 1549 1548 1548 1547 1546 1545 1544 1544 1543 1543 1543 1542 1543 1543 1543 1543 1543 1542 1541 1541 1541 1540 1540 1539 1539 1539 1538 1538 1537 1536 1535 1533 1532 1531 1531 1531 1530 1529 1527 1525 1523 1522 1522 1521 1520 1518 1516 1514 1512 1510 1507 1505 1502 1500 1497 1495 1493 1491 1489 1487
1509 1512 1515 1517 1519 1521 1523 1525 1528 1530 1532 1533 1535 1536 1536 1538 1539 1541 1543 1544 1545 1546 1547 1548 1548 1548 1548 1547 1546 1545 1544 1544 1543 1543 1543 1543 1543 1543 1543 1543 1543 1542 1542 1542 1541 1541 1540 1540 1540 1539 1539 1538 1537 1536 1535 1535 1534 1533 1532 1531 1531 1531 1530 1528 1526 1523 1521 1520 1520 1519 1518 1516 1514 1512 1510 1508 1505 1502 1500 1498 1495 1493 1491 1489 1487
1507 1510 1513 1515 1517 1519 1522 1525 1527 1529 1530 1532 1534 1535 1536 1537 1539 1542 1544 1545 1546 1546 1547 1547 1547 1547 1547 1546 1545 1544 1543 1543 1543 1543 1543 1543 1543 1543 1543 1543 1543 1542 1542 1542 1542 1541 1540 1540 1540 1540 1539 1538 1537 1535 1535 1534 1533 1533 1532 1532 1531 1530 1530 1529 1527 1525 1522 1520 1518 1518 1517 1516 1515 1512 1510 1508 1505 1503 1500 1497 1495 1493 1491 1488 1486
1506 1508 1511 1514 1516 1518 1521 1524 1526 1527 1529 1531 1533 1534 1535 1537 1539 1542 1544 1545 1546 1547 1547 1547 1547 1547 1546 1545 1544 1543 1543 1543 1542 1543 1543 1542 1543 1543 1543 1543 1542 1542 1542 1542 1542 1541 1540 1541 1541 1540 1539 1537 1536 1536 1535 1533 1533 1533 1532 1532 1531 1530 1529 1528 1527 1525 1524 1521 1519 1517 1516 1515 1514 1512 1511 1508 1506 1503 1500 1498 1495 1493 1490 1488 1486
1506 1508 1510 1513 1515 1518 1520 1523 1525 1527 1529 1530 1532 1533 1535 1537 1539 1541 1543 1545 1546 1546 1546 1546 1546 1546 1546 1544 1543 1543 1542 1542 1542 1542 1542 1542 1543 1543 1543 1543 1542 1543 1542 1542 1542 1541 1541 1541 1541 1540 1539 1537 1537 1536 1535 1533 1532 1532 1531 1531 1530 1529 1528 1527 1526 1525 1524 1523 1521 1519 1517 1515 1513 1512 1510 1509 1506 1504 1501 1498 1495 1492 1489 1487 1485
1506 1508 1510 1512 1514 1517 1519 1522 1524 1526 1528 1530 1531 1533 1534 1536 1539 1541 1543 1544 1544 1545 1546 1545 1545 1545 1544 1543 1543 1542 1542 1542 1542 1542 1542 1542 1543 1543 1543 1543 1543 1543 1543 1542 1542 1542 1541 1542 1541 1540 1539 1537 1537 1536 1535 1534 1533 1532 1531 1530 1529 1528 1528 1527 1526 1525 1524 1523 1521 1520 1518 1516 1514 1512 1511 1509 1507 1504 1501 1498 1495 1492 1489 1486 1484